Baker, MT

9:56 PM MDT on July 21, 2017 (GMT -0600)
Baker Municipal

Weather History for KBHK - April, 2013

Change the Weather History Date:

Tuesday, April 16, 2013

  Actual Average Record
Temperature  
Mean Temperature 24 °F -  
Max Temperature 28 °F 52 °F 77 °F (2006)
Min Temperature 21 °F 30 °F 15 °F (2001)
Degree Days  
Heating Degree Days 40    
Moisture  
Dew Point 19 °F    
Average Humidity 77    
Maximum Humidity 86    
Minimum Humidity 63    
Precipitation  
Precipitation 0.02 in - - ()
Sea Level Pressure  
Sea Level Pressure 30.24 in    
Wind  
Wind Speed 7 mph (NW)    
Max Wind Speed 12 mph    
Max Gust Speed -    
Visibility 6 miles    
Events Snow    
Averages and records for this station are not official NWS values.
T = Trace of Precipitation, MM = Missing Value Source: NWS Daily Summary

Daily Weather History Graph

Daily Weather History Graph

Search for Another Location

Airport or City:

Trip Planner

Search our weather history database for the weather conditions in past years. The results will help you decide how hot, cold, wet, or windy it might be!

Date:

Astronomy

Apr. 16, 2013 Rise Set
Actual Time 6:07 AM MDT 7:46 PM MDT
Civil Twilight 5:36 AM MDT 8:18 PM MDT
Nautical Twilight 4:57 AM MDT 8:56 PM MDT
Astronomical Twilight 4:16 AM MDT 9:38 PM MDT
Moon 10:19 AM MDT (4/16) 12:54 AM MDT (4/16)
Length of Visible Light 14h 41m
Length of Day
13h 38m
Waxing Crescent, 34% of the Moon is Illuminated
Apr 16
Waxing Crescent
Apr 18
First Quarter
Apr 25
Full
May 2
Last Quarter
May 9
New

Hourly Weather History & Observations

Time (MDT) Temp. Windchill Dew Point Humidity Pressure Visibility Wind Dir Wind Speed Gust Speed Precip Events Conditions
12:51 AM 21.0 °F 10.6 °F 16.0 °F 81% 30.18 in 6.0 mi West 9.2 mph - 0.00 in Snow Light Snow
1:51 AM 21.9 °F 11.7 °F 18.0 °F 85% 30.13 in 10.0 mi WNW 9.2 mph - 0.00 in   Overcast
2:00 AM 21.2 °F 11.7 °F 17.6 °F 86% 30.03 in 10.0 mi WNW 8.1 mph - N/A   Overcast
2:15 AM 23.0 °F 13.1 °F 17.6 °F 80% 30.04 in 10.0 mi WNW 9.2 mph - N/A   Overcast
2:51 AM 23.0 °F 11.7 °F 18.0 °F 81% 30.17 in 10.0 mi WNW 11.5 mph - N/A   Overcast
3:04 AM 21.2 °F 10.1 °F 17.6 °F 86% 30.08 in 10.0 mi WNW 10.4 mph - N/A   Overcast
3:51 AM 21.9 °F 11.7 °F 18.0 °F 85% 30.21 in 10.0 mi WSW 9.2 mph - N/A   Overcast
4:51 AM 24.1 °F 15.2 °F 19.0 °F 81% 30.22 in 10.0 mi West 8.1 mph - N/A   Overcast
5:51 AM 24.1 °F 16.0 °F 18.0 °F 77% 30.23 in 10.0 mi West 6.9 mph - 0.00 in   Overcast
6:51 AM 24.1 °F 18.2 °F 18.0 °F 77% 30.23 in 8.0 mi WNW 4.6 mph - 0.00 in Snow Light Snow
7:45 AM 24.8 °F 16.1 °F 17.6 °F 74% 30.14 in 9.0 mi WNW 8.1 mph - 0.00 in Snow Light Snow
7:51 AM 24.1 °F 16.0 °F 18.0 °F 77% 30.25 in 9.0 mi NW 6.9 mph - 0.00 in   Overcast
8:26 AM 24.8 °F 16.9 °F 19.4 °F 80% 30.16 in 9.0 mi WNW 6.9 mph - N/A   Overcast
8:51 AM 25.0 °F 20.7 °F 19.0 °F 78% 30.27 in 10.0 mi WNW 3.5 mph - N/A   Overcast
9:51 AM 25.0 °F 20.7 °F 19.0 °F 78% 30.27 in 5.0 mi SW 3.5 mph - 0.00 in Snow Light Snow
10:01 AM 24.8 °F 19.1 °F 17.6 °F 74% 30.17 in 5.0 mi WSW 4.6 mph - 0.00 in Snow Light Snow
10:18 AM 24.8 °F 20.5 °F 17.6 °F 74% 30.17 in 2.5 mi NW 3.5 mph - 0.01 in Snow Light Snow
10:27 AM 24.8 °F 20.5 °F 17.6 °F 74% 30.18 in 3.0 mi West 3.5 mph - 0.01 in Snow Light Snow
10:51 AM 26.1 °F 19.4 °F 18.0 °F 71% 30.29 in 6.0 mi West 5.8 mph - 0.01 in Snow Light Snow
11:12 AM 26.6 °F 20.0 °F 19.4 °F 74% 30.18 in 4.0 mi West 5.8 mph - 0.00 in Snow Light Snow
11:51 AM 26.1 °F 17.6 °F 19.0 °F 75% 30.29 in 7.0 mi WSW 8.1 mph - 0.00 in Snow Light Snow
12:23 PM 26.6 °F 20.0 °F 19.4 °F 74% 30.18 in 7.0 mi WSW 5.8 mph - 0.00 in Snow Light Snow
12:51 PM 26.1 °F 20.5 °F 18.0 °F 71% 30.29 in 6.0 mi SSW 4.6 mph - 0.00 in Snow Light Snow
1:51 PM 28.0 °F 21.7 °F 19.0 °F 69% 30.30 in 10.0 mi West 5.8 mph - 0.00 in   Overcast
2:40 PM 28.4 °F 23.3 °F 17.6 °F 64% 30.19 in 10.0 mi NNW 4.6 mph - N/A   Overcast
2:51 PM 28.0 °F 24.2 °F 17.1 °F 63% 30.30 in 10.0 mi North 3.5 mph - N/A   Overcast
3:51 PM 28.0 °F - 18.0 °F 66% 30.31 in 10.0 mi Calm Calm - N/A   Overcast
4:51 PM 28.0 °F 20.0 °F 19.0 °F 69% 30.32 in 10.0 mi ENE 8.1 mph - 0.00 in   Overcast
5:51 PM 28.0 °F 20.0 °F 19.9 °F 72% 30.32 in 6.0 mi NE 8.1 mph - 0.00 in Snow Light Snow
6:35 PM 26.6 °F 18.2 °F 19.4 °F 74% 30.23 in 2.0 mi ENE 8.1 mph - 0.00 in Snow Light Snow
6:44 PM 26.6 °F 17.5 °F 19.4 °F 74% 30.23 in 1.5 mi ENE 9.2 mph - 0.00 in Snow Light Snow
6:51 PM 27.0 °F 18.7 °F 19.9 °F 75% 30.33 in 1.0 mi ENE 8.1 mph - 0.00 in Snow Light Snow
7:51 PM 26.1 °F 19.4 °F 21.0 °F 81% 30.35 in 1.5 mi ENE 5.8 mph - 0.00 in Snow Light Snow
8:51 PM 26.1 °F 20.5 °F 21.0 °F 81% 30.37 in 1.5 mi East 4.6 mph - 0.01 in Snow Light Snow
8:58 PM 26.6 °F 20.0 °F 21.2 °F 80% 30.27 in 1.5 mi East 5.8 mph - 0.00 in Snow Light Snow
9:10 PM 26.6 °F 17.5 °F 21.2 °F 80% 30.27 in 2.0 mi East 9.2 mph - 0.00 in Snow Light Snow
9:25 PM 24.8 °F 16.1 °F 19.4 °F 80% 30.28 in 2.0 mi East 8.1 mph - 0.00 in Snow Light Snow
9:44 PM 24.8 °F 16.1 °F 19.4 °F 80% 30.28 in 3.0 mi East 8.1 mph - 0.00 in Snow Light Snow
9:51 PM 25.0 °F 15.5 °F 19.9 °F 81% 30.39 in 3.0 mi East 9.2 mph - 0.00 in Snow Light Snow
10:51 PM 25.0 °F 18.1 °F 19.9 °F 81% 30.38 in 4.0 mi East 5.8 mph - 0.00 in   Haze
11:51 PM 25.0 °F 20.7 °F 19.9 °F 81% 30.39 in 4.0 mi East 3.5 mph - 0.00 in Snow Light Snow